This demonstration page uses our WeatherBlox Daily Observations layout. Learn more.

Left ArrowRight Arrow

39.01783, -85.05884

Hourly Observations for March 17, 2018

Temp ( °F °C ) Dew Point ( °F °C ) Humidity (%) Winds ( mph kmh ) Pressure ( in mb ) Visibility ( mi km ) Precip ( " mm )
12:52 am 00:52 Cloudy 38 3.3 17 -8.3 43 43 E 9 15 30.00 1016 10 16 N/A
1:52 am 01:52 Mostly Cloudy 37 2.8 17 -8.3 44 44 E 8 13 29.97 1015 10 16 N/A
2:52 am 02:52 Cloudy with Light Rain 37 2.8 18 -7.8 46 46 E 10 17 29.96 1015 10 16 N/A
3:52 am 03:52 Cloudy with Light Rain 37 2.8 20 -6.7 50 50 E 6 9 29.94 1014 10 16 N/A
4:52 am 04:52 Cloudy with Light Rain 36 2.2 27 -2.8 70 70 E 8 13 29.91 1013 9 14 0.02 0.51
5:29 am 05:29 Cloudy with Light Rain 34 1.1 29 -1.7 82 82 E 14 22 29.91 1013 6 10 0.12 3.05
5:52 am 05:52 Cloudy with Light Rain 34 1.1 30 -1.1 85 85 E 7 11 29.90 1013 10 16 0.14 3.56
6:52 am 06:52 Cloudy 34 1.1 30 -1.1 85 85 E 8 13 29.89 1012 10 16 N/A
7:52 am 07:52 Cloudy 34 1.1 30 -1.1 85 85 E 9 15 29.87 1011 10 16 N/A
8:52 am 08:52 Cloudy 35 1.7 32 undefined 89 89 E 8 13 29.87 1011 10 16 N/A
9:52 am 09:52 Cloudy 35 1.7 33 0.6 93 93 E 10 17 29.86 1011 9 14 N/A
10:52 am 10:52 Cloudy with Mist and Fog 36 2.2 35 1.7 97 97 E 9 15 29.87 1012 3 4 N/A
11:23 am 11:23 Cloudy with Mist and Fog 37 2.8 36 2.2 96 96 ENE 9 15 29.88 1012 2 3 N/A
11:52 am 11:52 Cloudy with Light Rain 37 2.8 37 2.8 100 100 E 10 17 29.86 1011 2 2 N/A
12:35 pm 12:35 Cloudy with Mist and Fog 38 3.3 38 3.3 100 100 ENE 9 15 29.88 1012 1 1 0.01 0.25
12:52 pm 12:52 Cloudy with Mist and Fog 38 3.3 38 3.3 100 100 ENE 10 17 29.85 1011 1 1 0.01 0.25
1:52 pm 13:52 Cloudy with Mist and Fog 39 3.9 38 3.3 96 96 ENE 10 17 29.85 1011 2 3 N/A
2:52 pm 14:52 Cloudy with Mist and Fog 40 4.4 39 3.9 97 97 E 12 19 29.83 1010 3 4 N/A
3:52 pm 15:52 Cloudy with Drizzle 40 4.4 40 4.4 100 100 ENE 6 9 29.82 1010 3 4 N/A
4:52 pm 16:52 Cloudy 42 5.6 41 5 96 96 ENE 9 15 29.80 1009 3 4 N/A
5:28 pm 17:28 Cloudy 42 5.6 40 4.4 92 92 NE 8 13 29.83 1010 3 4 N/A
5:52 pm 17:52 Cloudy 43 6.1 40 4.4 89 89 NE 7 11 29.80 1009 3 4 N/A
5:55 pm 17:55 Cloudy 43 6.1 40 4.4 89 89 NE 9 15 29.83 1010 3 5 N/A
6:40 pm 18:40 Cloudy 43 6.1 40 4.4 89 89 NE 7 11 29.83 1010 3 5 N/A
6:52 pm 18:52 Cloudy 43 6.1 40 4.4 89 89 N 6 9 29.83 1010 3 5 N/A
7:10 pm 19:10 Cloudy 43 6.1 40 4.4 89 89 NNW 6 9 29.85 1011 9 14 N/A
7:52 pm 19:52 Cloudy 43 6.1 39 3.9 86 86 N 8 13 29.84 1011 10 16 N/A
8:52 pm 20:52 Cloudy 43 6.1 35 1.7 74 74 NNW 8 13 29.87 1012 10 16 N/A
9:34 pm 21:34 Cloudy 42 5.6 35 1.7 76 76 N 7 11 29.91 1013 10 16 N/A
9:52 pm 21:52 Cloudy 43 6.1 33 0.6 68 68 N 7 11 29.89 1012 10 16 N/A
10:03 pm 22:03 Cloudy 42 5.6 33 0.6 71 71 N 8 13 29.91 1013 10 16 N/A
10:52 pm 22:52 Cloudy 42 5.6 34 1.1 73 73 NNE 10 17 29.92 1013 10 16 N/A
11:27 pm 23:27 Cloudy 41 5 34 1.1 76 76 N 14 22 29.97 1015 10 16 N/A
11:52 pm 23:52 Cloudy 40 4.4 34 1.1 79 79 N 12 19 29.95 1014 10 16 N/A

Powered by AerisWeather